TimeAKDT,TemperatureF,Dew PointF,Humidity,Sea Level PressureIn,VisibilityMPH,Wind Direction,Wind SpeedMPH,Gust SpeedMPH,PrecipitationIn,Events,Conditions,WindDirDegrees,DateUTC
12:54 AM,32.0,30.9,96,30.14,10.0,Calm,Calm,-,N/A,,Partly Cloudy,0,2013-10-26 08:54:00
1:54 AM,28.0,27.0,96,30.16,10.0,East,4.6,-,N/A,,Partly Cloudy,100,2013-10-26 09:54:00
2:54 AM,30.0,28.9,96,30.17,10.0,East,3.5,-,N/A,,Partly Cloudy,80,2013-10-26 10:54:00
3:54 AM,30.0,28.9,96,30.17,10.0,ENE,6.9,-,N/A,,Clear,60,2013-10-26 11:54:00
4:54 AM,32.0,28.9,88,30.18,10.0,Calm,Calm,-,N/A,,Clear,0,2013-10-26 12:54:00
5:54 AM,26.1,26.1,100,30.18,10.0,Calm,Calm,-,N/A,,Scattered Clouds,0,2013-10-26 13:54:00
6:54 AM,27.0,26.1,96,30.18,10.0,Calm,Calm,-,N/A,,Scattered Clouds,0,2013-10-26 14:54:00
7:54 AM,28.9,28.0,96,30.19,9.0,WSW,5.8,-,N/A,,Mostly Cloudy,240,2013-10-26 15:54:00
8:01 AM,28.4,28.4,100,30.19,10.0,SW,3.5,-,N/A,,Overcast,230,2013-10-26 16:01:00
8:54 AM,27.0,27.0,100,30.14,10.0,SE,4.6,-,N/A,,Mostly Cloudy,130,2013-10-26 16:54:00
9:54 AM,25.0,24.1,96,30.14,10.0,North,4.6,-,N/A,,Mostly Cloudy,350,2013-10-26 17:54:00
10:54 AM,30.0,28.0,92,30.14,10.0,Calm,Calm,-,N/A,,Mostly Cloudy,0,2013-10-26 18:54:00
11:54 AM,33.1,30.9,92,30.11,10.0,North,5.8,-,N/A,,Mostly Cloudy,10,2013-10-26 19:54:00
12:54 PM,41.0,35.1,79,30.09,10.0,NNE,3.5,-,N/A,,Mostly Cloudy,30,2013-10-26 20:54:00
1:54 PM,42.1,35.1,76,30.03,10.0,ENE,5.8,-,N/A,,Mostly Cloudy,70,2013-10-26 21:54:00
2:54 PM,48.0,30.0,50,29.99,10.0,East,20.7,28.8,N/A,,Mostly Cloudy,90,2013-10-26 22:54:00
3:54 PM,48.9,30.9,50,29.94,10.0,East,23.0,34.5,N/A,,Overcast,100,2013-10-26 23:54:00
4:54 PM,48.0,32.0,54,29.86,10.0,East,29.9,41.4,N/A,,Overcast,90,2013-10-27 00:54:00
5:54 PM,48.9,30.0,48,29.82,10.0,East,28.8,40.3,N/A,,Overcast,100,2013-10-27 01:54:00
6:54 PM,48.9,32.0,52,29.80,10.0,East,25.3,34.5,N/A,,Overcast,100,2013-10-27 02:54:00
7:54 PM,50.0,33.1,52,29.76,10.0,East,24.2,41.4,N/A,,Overcast,100,2013-10-27 03:54:00
8:54 PM,45.0,39.0,80,29.77,7.0,ESE,24.2,40.3,0.01,Rain,Rain,110,2013-10-27 04:54:00
9:54 PM,44.1,39.9,85,29.78,7.0,ESE,24.2,40.3,0.04,Rain,Light Rain,110,2013-10-27 05:54:00
10:54 PM,43.0,42.1,97,29.79,5.0,ESE,24.2,34.5,0.15,Rain,Rain,110,2013-10-27 06:54:00
11:54 PM,44.1,43.0,96,29.76,10.0,East,21.9,35.7,0.07,Rain,Light Rain,100,2013-10-27 07:54:00